sat.trackr.live / text

‹ back to catalog

STARLINK-32902

NORAD 62898 · 2025-024V

PAYLOAD ACTIVE UNKNOWN

§ Identity

Operator
Country
US
Launch date
2025-02-04
Launch site
AFETR
Launch vehicle
Mass (kg)
RCS (m²)

Purposes: comms

External: N2YO · Heavens-Above · Gunter

§ Orbital elements

Epoch: 2026-05-25T00:23:02.781024Z

Period
94.27 min
Inclination
42.9924°
Eccentricity
0.0001199
Mean motion
15.27586592 rev/d
Perigee alt
482.2 km
Apogee alt
483.9 km
Semi-major
6,861.2 km
B*
4.7128e-4
RAAN
253.9214°
Arg perigee
293.9053°
Mean anomaly
66.1672°
Rev number
7,394

§ Raw data

STARLINK-329021 62898U 25024V   26145.01600441  .00012732  00000+0  47128-3 0  99992 62898  42.9924 253.9214 0001199 293.9053  66.1672 15.27586592 73943

JSON: /api/v1/satellites/62898 · /tle

For live sub-satellite position, see the globe view (requires WebGL).

§ Visibility from observer

Set your observer location to see the next 7 days of passes ≥ 10°. The values pass through the URL so the page stays shareable.

No JS? Fill the form by hand. The geolocation button needs JavaScript.